Location: Unspecified
(40.8819°N, 0.0000°E)
Time: 19:02:13
(UTC+00:00)

NANOSAT C BR1 - Pass Details

Date: 03 May 2024
Orbit: 555 x 561 km, 98.1° (Epoch: 26 May)

Event Time Altitude Azimuth Distance (km) Brightness Sun altitude
Rises 03:43:35 0° 15° (NNE) 2,767 ? -12.8°
Reaches altitude 10° 03:45:44 10° 18° (NNE) 1,866 ? -12.5°
Maximum altitude 03:49:46 69° 101° (E) 608 ? -11.8°
Drops below altitude 10° 03:53:45 10° 186° (S) 1,849 ? -11.2°
Enters shadow 03:54:59 - 188° (S) 2,361 ? -11.0°
